Precipitable_Water
1.32 1.30 1.26 1.27 1.33 1.37 1.39 1.42 1.47 1.46 1.43 1.53 1.51 1.45 1.41 1.36 1.37 1.36 1.42 1.52 1.41 1.37 1.32 1.23 1.30 1.37 1.29 1.30 1.41 1.43 1.32 1.27 1.22 1.24 1.29 1.34 1.33 1.28 1.24 1.20 1.18 1.18 1.16
1.30 1.24 1.20 1.26 1.32 1.36 1.31 1.46 1.47 1.42 1.46 1.40 1.45 1.40 1.39 1.34 1.32 1.27 1.25 1.44 1.37 1.30 1.32 1.27 1.27 1.44 1.46 1.48 1.42 1.34 1.31 1.31 1.23 1.14 1.22 1.22 1.24 1.27 1.20 1.15 1.10 1.14 1.22
1.30 1.17 1.18 1.22 1.28 1.30 1.35 1.32 1.45 1.45 1.40 1.34 1.40 1.39 1.37 1.32 1.27 1.22 1.26 1.39 1.30 1.26 1.27 1.37 1.32 1.35 1.39 1.44 1.45 1.37 1.40 1.40 1.42 1.33 1.24 1.26 1.15 1.17 1.10 1.06 1.06 1.16 1.31
1.28 1.20 1.11 1.21 1.23 1.28 1.37 1.38 1.36 1.49 1.47 1.45 1.43 1.41 1.41 1.36 1.30 1.24 1.29 1.38 1.34 1.30 1.35 1.39 1.39 1.38 1.36 1.37 1.41 1.44 1.47 1.39 1.38 1.33 1.25 1.22 1.22 1.20 1.07 1.07 1.08 1.19 1.13
1.29 1.28 1.23 1.31 1.41 1.47 1.45 1.49 1.50 1.56 1.57 1.55 1.49 1.52 1.53 1.46 1.38 1.28 1.27 1.33 1.37 1.31 1.39 1.46 1.48 1.46 1.45 1.50 1.49 1.45 1.46 1.39 1.37 1.30 1.25 1.21 1.09 1.02 1.01 1.07 1.01 1.01 0.98
1.27 1.28 1.36 1.45 1.53 1.53 1.54 1.57 1.64 1.67 1.70 1.68 1.58 1.58 1.59 1.55 1.45 1.29 1.25 1.34 1.40 1.36 1.40 1.48 1.43 1.46 1.45 1.45 1.45 1.46 1.47 1.39 1.34 1.30 1.25 1.14 1.06 1.06 1.05 1.00 0.92 0.80 0.71
1.32 1.34 1.37 1.42 1.47 1.56 1.66 1.70 1.73 1.74 1.77 1.62 1.66 1.69 1.68 1.66 1.50 1.33 1.32 1.41 1.42 1.44 1.53 1.57 1.53 1.42 1.40 1.47 1.48 1.42 1.39 1.46 1.48 1.40 1.23 1.13 1.07 1.04 1.02 0.89 0.83 0.81 0.78
1.36 1.41 1.44 1.47 1.48 1.58 1.66 1.72 1.73 1.69 1.61 1.63 1.65 1.67 1.66 1.66 1.55 1.41 1.39 1.40 1.40 1.50 1.58 1.61 1.46 1.41 1.41 1.38 1.39 1.35 1.34 1.42 1.42 1.43 1.34 1.18 1.18 1.11 1.01 0.93 0.85 0.80 0.76
1.34 1.41 1.48 1.55 1.59 1.62 1.65 1.66 1.59 1.60 1.64 1.64 1.60 1.59 1.60 1.59 1.59 1.52 1.44 1.39 1.40 1.53 1.61 1.59 1.49 1.43 1.46 1.42 1.37 1.23 1.30 1.30 1.32 1.29 1.28 1.23 1.17 1.07 1.00 0.92 0.77 0.73 0.67
1.36 1.39 1.58 1.70 1.68 1.65 1.65 1.57 1.62 1.63 1.59 1.61 1.58 1.64 1.64 1.60 1.63 1.59 1.50 1.52 1.51 1.50 1.51 1.42 1.42 1.50 1.51 1.52 1.37 1.33 1.24 1.18 1.17 1.12 1.10 1.09 1.06 0.99 0.99 0.95 0.88 0.78 0.77
1.57 1.58 1.62 1.69 1.74 1.71 1.55 1.56 1.53 1.50 1.53 1.56 1.59 1.62 1.64 1.64 1.61 1.58 1.56 1.58 1.52 1.49 1.40 1.38 1.52 1.54 1.54 1.49 1.42 1.34 1.24 1.20 1.13 1.05 0.95 0.88 0.90 0.98 1.00 0.99 0.95 0.88 0.80
1.61 1.58 1.65 1.70 1.61 1.54 1.53 1.49 1.50 1.52 1.53 1.55 1.54 1.54 1.61 1.60 1.59 1.62 1.61 1.60 1.59 1.44 1.33 1.39 1.42 1.44 1.43 1.40 1.28 1.25 1.22 1.16 1.02 0.90 0.84 0.86 0.93 0.87 0.86 0.83 0.80 0.77 0.74
1.62 1.59 1.60 1.52 1.55 1.59 1.48 1.45 1.51 1.56 1.49 1.45 1.45 1.44 1.43 1.52 1.68 1.63 1.59 1.60 1.56 1.48 1.42 1.40 1.36 1.35 1.34 1.27 1.22 1.18 1.14 0.99 0.87 0.82 0.85 0.83 0.83 0.82 0.77 0.74 0.74 0.70 0.66
1.62 1.52 1.51 1.50 1.49 1.51 1.51 1.59 1.51 1.49 1.46 1.42 1.38 1.37 1.49 1.56 1.54 1.52 1.49 1.51 1.47 1.42 1.38 1.35 1.28 1.21 1.22 1.22 1.15 1.04 0.97 0.94 0.90 0.85 0.77 0.79 0.83 0.78 0.72 0.70 0.60 0.51 0.42
1.57 1.49 1.44 1.43 1.44 1.43 1.47 1.50 1.51 1.52 1.51 1.43 1.48 1.46 1.39 1.33 1.41 1.46 1.40 1.31 1.31 1.27 1.21 1.13 1.07 1.03 0.99 1.01 1.02 0.99 0.97 0.92 0.84 0.87 0.78 0.76 0.77 0.72 0.64 0.53 0.46 0.41 0.42
1.38 1.40 1.38 1.40 1.39 1.40 1.39 1.42 1.51 1.50 1.46 1.45 1.46 1.41 1.37 1.38 1.36 1.26 1.14 1.12 1.14 1.11 1.02 1.05 1.06 0.98 0.92 0.97 0.96 0.92 0.90 0.90 0.88 0.82 0.73 0.69 0.61 0.52 0.46 0.44 0.41 0.41 0.37
1.24 1.29 1.33 1.39 1.41 1.40 1.41 1.35 1.22 1.30 1.33 1.29 1.22 1.19 1.15 1.08 1.11 1.10 1.07 1.02 1.03 1.03 0.97 0.93 0.81 0.83 0.90 0.89 0.83 0.82 0.83 0.84 0.81 0.74 0.67 0.57 0.51 0.45 0.42 0.39 0.37 0.37 0.37
1.42 1.33 1.31 1.33 1.33 1.44 1.35 1.27 1.19 1.05 0.91 0.87 0.94 0.94 0.97 1.00 1.02 1.02 1.00 0.97 0.85 0.84 0.81 0.80 0.80 0.86 0.79 0.77 0.77 0.76 0.74 0.72 0.69 0.61 0.51 0.46 0.42 0.41 0.38 0.36 0.37 0.34 0.36
1.35 1.34 1.41 1.45 1.42 1.34 1.29 1.18 1.12 1.02 0.89 0.81 0.83 0.90 0.95 0.97 0.95 0.90 0.84 0.81 0.82 0.86 0.88 0.86 0.82 0.74 0.71 0.69 0.67 0.66 0.65 0.62 0.54 0.44 0.41 0.42 0.41 0.36 0.35 0.36 0.37 0.36 0.38
1.32 1.27 1.29 1.35 1.20 1.25 1.17 0.99 0.94 1.00 1.00 0.94 0.96 0.92 0.91 0.88 0.81 0.79 0.80 0.79 0.80 0.83 0.81 0.75 0.71 0.65 0.63 0.62 0.61 0.59 0.54 0.46 0.41 0.44 0.43 0.38 0.36 0.35 0.35 0.37 0.37 0.37 0.38
1.32 1.31 1.21 1.27 1.16 1.10 1.00 0.92 0.94 1.00 1.02 1.00 0.93 0.88 0.91 0.87 0.82 0.78 0.76 0.78 0.84 0.84 0.79 0.74 0.68 0.65 0.63 0.61 0.56 0.47 0.41 0.38 0.39 0.40 0.37 0.34 0.34 0.35 0.39 0.38 0.38 0.37 0.38
1.19 1.00 1.05 1.07 1.14 1.01 0.97 0.98 0.99 1.01 1.05 0.99 1.08 0.93 1.01 0.94 0.89 0.87 0.86 0.90 0.90 0.85 0.79 0.73 0.69 0.67 0.61 0.53 0.46 0.40 0.35 0.36 0.37 0.37 0.34 0.33 0.35 0.37 0.38 0.38 0.38 0.36 0.37
1.18 1.17 1.15 1.16 1.10 1.10 1.11 1.10 1.04 1.06 0.98 0.97 0.94 0.91 0.93 0.94 0.93 0.91 0.91 0.88 0.84 0.81 0.77 0.73 0.68 0.62 0.55 0.50 0.41 0.35 0.33 0.36 0.38 0.36 0.32 0.33 0.34 0.37 0.36 0.37 0.37 0.34 0.36
1.15 1.20 1.15 1.18 1.24 1.11 1.09 1.01 1.04 0.94 0.98 0.97 0.93 0.90 0.90 0.93 0.91 0.91 0.85 0.86 0.78 0.77 0.77 0.72 0.69 0.61 0.55 0.50 0.42 0.33 0.33 0.35 0.34 0.31 0.30 0.28 0.33 0.36 0.37 0.37 0.35 0.33 0.36
1.02 1.04 1.03 1.01 1.14 1.11 0.98 0.95 0.90 0.94 0.93 0.94 0.90 0.98 0.94 0.92 0.83 0.82 0.82 0.79 0.76 0.74 0.71 0.72 0.67 0.62 0.55 0.49 0.41 0.33 0.30 0.29 0.29 0.25 0.21 0.25 0.30 0.36 0.37 0.33 0.33 0.32 0.34
1.03 0.91 1.01 1.03 0.97 0.89 0.88 0.88 0.91 0.89 0.86 0.86 0.85 0.85 0.91 0.81 0.83 0.76 0.78 0.79 0.74 0.68 0.68 0.69 0.68 0.64 0.57 0.50 0.43 0.36 0.31 0.26 0.22 0.20 0.20 0.21 0.31 0.37 0.36 0.29 0.32 0.31 0.32
Wind_Speed
24 24 24 22 21 19 17 17 16 15 14 13 13 14 15 16 16 16 17 18 18 18 16 17 18 18 18 18 18 19 19 19 19 20 21 22 24 25 26 28 28 29 28
24 24 24 23 22 21 20 19 18 18 16 17 17 17 18 18 18 19 19 20 20 20 18 17 19 20 20 19 20 21 21 21 21 22 23 24 25 25 25 27 29 30 31
25 25 25 24 23 23 22 22 20 20 19 20 20 21 21 21 21 22 22 23 23 22 21 20 20 20 21 21 21 21 21 21 22 23 23 24 25 26 28 30 31 31 31
26 26 26 25 24 23 23 22 22 21 21 21 22 23 24 24 24 25 25 25 25 24 23 22 21 20 20 21 22 22 22 23 24 25 26 26 27 28 30 31 31 32 34
27 27 26 25 24 23 23 23 23 23 23 23 24 24 24 25 25 26 26 27 26 25 25 24 23 21 21 21 22 23 24 25 25 27 28 29 30 30 31 33 34 35 34
28 29 27 26 25 25 24 23 23 23 23 24 24 24 25 27 26 25 26 27 27 27 26 25 23 22 23 24 25 25 26 28 29 30 30 31 32 33 34 34 34 35 36
28 28 28 27 26 25 24 24 24 24 23 23 23 24 26 26 26 27 27 26 26 26 26 25 24 23 24 24 24 26 27 29 31 31 30 32 33 34 34 34 34 36 36
29 29 28 28 27 25 24 24 24 23 23 23 24 25 26 26 26 27 27 27 28 27 27 26 24 24 25 25 27 28 31 32 32 31 32 33 33 33 34 35 37 36 35
30 29 28 28 27 26 25 25 24 24 23 24 24 25 27 27 27 27 27 28 29 29 27 26 26 26 27 27 29 31 32 32 31 32 33 33 33 34 36 36 35 33 32
31 31 29 28 27 26 25 25 24 24 24 25 25 26 26 27 28 27 27 27 26 26 26 26 27 27 28 29 30 31 31 30 31 31 31 32 35 36 35 35 34 32 32
31 30 29 29 27 26 24 24 24 24 24 25 25 26 27 28 28 27 26 25 26 24 24 26 27 28 29 30 31 31 30 30 31 32 35 35 34 33 32 31 29 29 30
30 29 28 27 26 24 23 23 23 24 24 24 26 26 27 27 26 25 24 25 25 25 26 27 27 28 29 31 31 29 30 32 33 34 33 32 30 29 29 29 30 31 31
30 28 27 26 24 23 23 23 23 24 24 25 26 26 26 23 24 24 25 26 27 27 28 28 27 29 29 29 29 29 30 32 33 31 30 29 28 28 28 28 27 28 29
27 26 25 24 22 22 23 23 23 23 24 25 25 25 25 25 24 24 25 25 25 26 26 28 28 27 27 27 28 29 29 29 27 27 27 26 25 25 26 26 27 27 27
25 24 23 23 22 22 22 23 23 23 24 24 24 25 24 24 24 24 24 25 25 25 25 25 24 26 27 27 27 27 27 26 25 23 24 24 24 25 25 25 25 25 25
24 23 23 23 22 22 22 21 20 21 21 21 22 23 22 22 22 23 23 22 22 22 23 24 26 28 28 26 25 25 24 24 22 22 23 24 25 24 24 24 24 23 23
23 22 23 23 23 23 23 22 20 20 21 21 21 21 21 21 21 21 20 20 20 22 24 25 25 24 22 22 22 21 21 20 23 24 24 23 23 23 22 22 21 21 21
21 21 22 22 23 22 22 21 20 21 21 21 21 21 20 19 19 19 19 20 22 23 22 22 20 19 19 19 20 20 21 21 22 22 22 22 21 20 20 20 20 20 21
20 20 21 23 24 25 23 20 21 20 19 18 18 18 18 18 18 19 20 21 21 20 19 18 17 17 18 19 19 19 20 20 20 21 20 19 19 19 19 19 20 20 21
21 22 21 23 21 19 19 20 20 20 18 18 18 18 18 19 19 19 19 20 19 17 15 15 17 17 17 18 18 19 19 19 18 18 18 18 17 17 18 19 19 20 20
20 21 19 18 19 19 19 20 20 19 19 19 18 17 17 16 17 18 16 15 14 14 15 15 16 15 16 16 16 16 17 17 16 16 16 17 17 17 18 19 19 20 20
22 19 20 20 18 18 18 18 17 19 19 18 17 17 15 17 17 16 15 15 15 14 14 14 15 14 14 14 15 16 16 16 15 15 15 16 16 16 17 17 18 18 18
17 17 14 15 17 16 16 15 14 15 15 16 17 17 17 17 17 16 16 15 15 14 13 13 13 13 14 14 15 15 15 14 14 14 15 15 16 16 16 17 17 17 17
12 12 13 15 15 16 17 17 16 18 17 18 16 18 18 18 18 17 16 15 15 14 13 14 13 13 13 14 15 15 14 13 13 14 15 15 15 16 15 16 16 15 16
15 15 16 18 16 18 18 20 20 18 18 19 19 18 18 18 18 17 16 16 15 14 14 14 13 13 13 14 14 12 12 13 14 15 15 15 14 15 14 13 14 14 14
13 14 17 17 19 20 20 20 18 19 19 19 19 19 19 19 19 18 17 16 16 15 15 14 13 13 13 14 14 12 13 13 14 14 14 13 13 13 13 12 13 13 13
Wind_Direction
222 220 221 223 224 226 231 235 241 249 258 265 272 280 286 289 289 292 299 309 320 323 313 278 282 279 280 280 287 292 293 290 289 290 285 289 288 288 287 288 289 288 289
221 220 221 223 226 230 234 240 247 252 259 264 273 280 286 287 287 287 291 300 308 312 310 294 282 280 276 279 286 290 292 289 288 291 291 290 290 290 288 290 293 291 288
221 221 222 225 229 234 238 242 249 254 260 266 273 277 283 284 285 284 286 294 299 300 301 300 284 281 276 278 283 288 290 289 289 290 291 290 290 289 289 291 293 293 289
222 222 225 228 232 236 241 244 249 256 263 270 274 277 281 283 284 283 284 289 293 295 295 297 290 276 275 280 283 286 286 289 288 288 289 289 289 289 292 292 294 293 293
223 224 227 230 234 238 241 247 252 259 265 271 275 279 282 285 286 283 281 287 288 289 289 292 288 274 276 281 283 284 285 288 287 288 289 289 292 293 294 294 294 294 293
226 226 228 231 235 239 242 248 254 260 267 272 274 277 284 283 285 285 282 285 286 284 285 287 285 275 278 281 281 286 287 288 288 287 288 290 292 292 295 295 295 296 295
228 228 229 233 235 238 244 249 256 261 268 271 273 279 284 286 284 283 282 285 286 284 284 283 282 277 281 282 280 285 290 290 289 289 288 291 292 293 294 294 295 296 295
230 229 231 233 235 237 244 252 257 261 264 270 276 280 284 286 285 288 283 282 285 284 283 280 279 277 281 283 285 287 292 292 290 289 287 291 292 293 294 294 296 295 295
229 230 231 233 235 239 246 251 255 260 266 272 277 281 284 286 285 286 283 283 284 282 278 279 279 277 281 283 287 290 293 293 292 292 291 291 292 293 293 294 294 294 293
230 228 230 233 237 242 247 250 256 261 268 273 278 281 284 286 285 285 283 285 283 280 278 277 278 280 283 286 289 291 293 293 295 295 295 295 294 294 293 293 292 290 291
228 228 230 233 237 241 245 251 257 262 270 275 279 283 285 286 285 283 283 283 283 278 282 283 281 282 284 287 289 292 292 293 296 296 296 296 295 294 294 295 293 291 291
225 227 229 231 234 238 245 252 261 268 273 276 280 284 287 286 285 282 281 280 281 279 284 287 286 285 287 288 290 289 290 291 297 297 297 296 296 295 295 295 294 294 293
222 224 225 227 234 240 244 258 267 271 275 278 281 284 285 284 285 284 282 282 281 279 282 287 289 289 289 287 289 293 293 294 296 295 296 296 297 296 297 297 297 297 298
218 218 221 227 233 240 253 266 269 272 276 280 281 282 284 286 284 285 286 284 282 281 282 287 289 291 289 288 290 292 296 297 298 297 299 298 298 299 300 300 300 301 301
213 217 222 229 238 248 260 266 270 275 275 279 281 283 284 285 284 285 286 285 284 283 284 287 288 291 292 291 291 294 296 297 297 297 299 300 301 301 301 302 302 303 303
215 224 230 234 242 250 257 266 276 275 278 283 284 285 286 287 285 287 288 288 287 287 287 288 291 294 293 292 293 295 296 296 296 299 301 301 302 302 302 303 303 303 305
220 225 231 238 245 252 256 262 267 277 283 285 285 285 286 286 286 286 288 290 291 291 292 294 294 296 296 295 296 297 298 299 300 301 302 302 303 303 303 305 305 305 307
223 231 236 242 246 253 259 263 265 274 277 282 285 284 285 285 286 286 287 290 293 294 295 295 294 298 299 299 299 299 301 301 302 304 304 304 304 305 305 306 307 308 309
232 241 245 249 254 258 258 260 267 272 276 282 280 282 283 285 287 289 290 291 293 294 291 295 297 299 301 302 304 303 304 304 303 304 305 303 305 306 306 307 309 309 310
249 248 250 255 257 253 260 267 269 269 273 278 278 281 279 282 285 288 289 290 290 292 294 296 298 300 303 304 305 306 306 306 306 305 306 308 308 309 309 310 311 311 312
250 251 257 244 246 253 264 267 268 267 270 274 276 280 278 279 286 288 287 289 285 288 292 293 299 302 304 304 308 311 311 309 309 310 311 311 310 309 311 312 312 313 313
253 245 244 251 253 259 264 262 266 269 269 273 271 278 271 283 286 285 282 284 280 283 291 295 298 301 305 307 309 310 312 313 312 312 314 315 314 313 316 316 317 318 318
247 244 252 255 252 259 255 261 272 269 272 272 274 273 272 280 286 285 280 279 280 280 286 292 297 300 305 305 310 311 310 309 315 316 315 316 318 318 318 320 321 322 324
243 250 250 247 248 262 261 263 266 273 272 273 273 273 272 276 281 282 275 274 275 273 279 287 290 299 304 306 310 310 309 308 312 316 319 317 318 321 321 322 326 325 327
251 253 261 258 248 256 265 269 269 267 269 271 274 273 271 273 277 274 272 271 269 270 276 282 286 293 298 303 308 309 310 310 311 312 314 318 318 321 324 324 330 329 332
258 259 255 255 263 266 265 265 266 267 268 272 273 270 268 273 271 271 265 260 263 267 272 275 278 286 295 301 302 301 306 309 311 312 314 315 319 322 326 325 329 332 337